Regional Weather Roundup
Issued by NWS

Home | Current Version | Previous Version | Graphics & Text | Print | Product List | Glossary On
Versions: 1 2 3 4 5 6 7 8 9 10 11 12 13 14 15 16 17 18 19 20 21 22 23 24 25 26 27 28 29 30 31 32 33 34 35 36 37 38 39 40 41 42 43 44 45 46 47 48 49 50
000
ASUS43 KIND 221409
RWRIN

WEATHER ROUNDUP FOR INDIANA
NATIONAL WEATHER SERVICE INDIANAPOLIS IN
1000 AM EDT FRI AUG 22 2014

NOTE: "FAIR" INDICATES FEW OR NO CLOUDS BELOW 12,000 FEET WITH NO
SIGNIFICANT WEATHER AND/OR OBSTRUCTIONS TO VISIBILITY.

* - STATION DOES NOT REPORT WEATHER SUCH AS PRECIPITATION OR FOG.

+ - STATION NOT QUALITY CONTROLLED BY THE NATIONAL WEATHER SERVICE.
    USE DATA WITH CAUTION...ESPECIALLY DEWPOINT AND RELATIVE
    HUMIDITY OBSERVATIONS.

INZ001>003-010>013-019-020-221500-
NORTHWEST INDIANA

CITY           SKY/WX    TMP DP  RH WIND       PRES   REMARKS
GARY /AIRPORT/ PTSUNNY   75  73  94 MISG      29.96R
KNOX *+        CLOUDY    72  69  90 S3        29.97S
LA PORTE +     PTSUNNY   73  73 100 S5        29.99S
MICHIGAN CITY+ CLOUDY    73  72  94 CALM      29.97S
MONTICELLO +   CLOUDY    73  72  97 CALM      29.97F
RENSSELAER +   CLOUDY    72  72 100 S5        29.98R
VALPARAISO     CLOUDY    74  71  91 S7        29.98R

$$

LMZ046-743>745-221500-
SOUTHERN LAKE MICHIGAN

STATION/POSITION TIME  TEMP WIND        PRES
                       AIR  DIR/SP/G
                 (UTC) (F)  (DEG/KT/KT) (MB)
MICHIGAN CITY    1400   74  140/  9/ 13   N/A

$$

INZ004-005-014>016-021>024-221500-
NORTH CENTRAL INDIANA

CITY           SKY/WX    TMP DP  RH WIND       PRES   REMARKS
ELKHART        LGT RAIN  73  72  94 SW8       29.99R
GOSHEN         PTSUNNY   77  72  84 S12       29.98R
LOGANSPORT +   CLOUDY    72  68  88 S5        29.98F
PERU/GRISSOM   CLOUDY    73  73 100 SW6       29.98F
ROCHESTER +    CLOUDY    73  73 100 S5        30.00R
SOUTH BEND     CLOUDY    74  70  87 SW9       29.99R

$$

INZ006>009-017-018-025>027-221500-
NORTHEAST INDIANA

CITY           SKY/WX    TMP DP  RH WIND       PRES   REMARKS
ANGOLA *+      CLOUDY    73  66  78 CALM      29.99S
AUBURN +       PTSUNNY   75  70  83 SW5       30.00F
FORT WAYNE     CLOUDY    73  70  90 S8        29.99F
HUNTINGTON +   CLOUDY    72  71  95 S6        29.98F

$$

INZ028-029-035-036-043>045-051>053-221500-
WEST CENTRAL INDIANA

CITY           SKY/WX    TMP DP  RH WIND       PRES   REMARKS
GREENCASTLE +  CLOUDY    73  72  94 N5        30.03R
LAFAYETTE      CLOUDY    71  71 100 SE5       29.98F
TERRE HAUTE    CLOUDY    77  73  87 N5        30.01R

$$

INZ030>032-037>040-046>048-054>057-064-065-221500-
CENTRAL INDIANA

CITY           SKY/WX    TMP DP  RH WIND       PRES   REMARKS
ANDERSON       LGT RAIN  70  70 100 S12       30.02F
CP ATTERBURY + CLOUDY    77  72  83 CALM      30.02F
FRANKFORT +    CLOUDY   N/A N/A N/A SE3       30.01F
GREENWOOD *+   CLOUDY    77  75  94 NE3       30.02
INDIANAPOLIS   CLOUDY    73  70  90 NE8       30.01S
-EAGLE CREEK   CLOUDY    73  69  87 NE3       30.01F
KOKOMO *+      CLOUDY    72  70  94 S7        29.99F
MARION +       CLOUDY    70  69  97 S8        30.00F
MT COMFORT *+  CLOUDY    72 N/A N/A SE5       30.02F
SHELBYVILLE    LGT RAIN  76  32  20 CALM      30.01S
ZIONSVILLE +   DRIZZLE   72  68  89 CALM      30.02F

$$

INZ033-034-041-042-049-050-058-059-221500-
EAST CENTRAL INDIANA

CITY           SKY/WX    TMP DP  RH WIND       PRES   REMARKS
MUNCIE         LGT RAIN  71  68  90 S7        30.01F

$$

INZ060-061-067>069-081>083-085>088-221500-
SOUTHWEST INDIANA

CITY           SKY/WX    TMP DP  RH WIND       PRES   REMARKS
EVANSVILLE     PTSUNNY   82  73  74 SW9       30.03R
WASHINGTON +   CLOUDY    79  74  86 W8        30.01R

$$

INZ062-063-066-070>080-084-089>092-221500-
SOUTH CENTRAL AND SOUTHEAST INDIANA

CITY           SKY/WX    TMP DP  RH WIND       PRES   REMARKS
BLOOMINGTON    CLOUDY    78  73  84 W5        30.02R
NORTH VERNON + CLOUDY    75  75 100 CALM      30.04

$$




USA.gov is the U.S. government's official web portal to all federal, state and local government web resources and services.